Weather History for Rickenbacker, OH

Change the Weather History Date:

Wednesday, February 6, 2013

  Actual Average Record
Temperature  
Mean Temperature 30 °F -  
Max Temperature 35 °F 39 °F 62 °F (2008)
Min Temperature 23 °F 24 °F 0 °F (2007)
Degree Days  
Heating Degree Days 36    
Moisture  
Dew Point 23 °F    
Average Humidity 68    
Maximum Humidity 78    
Minimum Humidity 51    
Precipitation  
Precipitation 0.00 in - - ()
Sea Level Pressure  
Sea Level Pressure 30.20 in    
Wind  
Wind Speed 5 mph (NW)    
Max Wind Speed 9 mph    
Max Gust Speed -    
Visibility 8 miles    
Events      
Averages and records for this station are not official NWS values.
T = Trace of Precipitation, MM = Missing Value Source: NWS Daily Summary

Daily Weather History Graph

Daily Weather History Graph

Search for Another Location

Airport:

Trip Planner

Search our weather history database for the weather conditions in past years. The results will help you decide how hot, cold, wet, or windy it might be!

Date:

Astronomy

Feb. 06, 2013 Rise Set
Actual Time 7:34 AM EST 5:57 PM EST
Civil Twilight 7:06 AM EST 6:25 PM EST
Nautical Twilight 6:34 AM EST 6:57 PM EST
Astronomical Twilight 6:02 AM EST 7:29 PM EST
Moon 4:16 AM EST (2/6) 2:14 PM EST (2/6)
Length of Visible Light 11h 19m
Length of Day
10h 23m
Waning Crescent, 17% of the Moon is Illuminated
Feb 6
Waning Crescent
Feb 10
New
Feb 17
First Quarter
Feb 25
Full
Mar 4
Last Quarter

Hourly Weather History & Observations

Time (EST) Temp. Windchill Dew Point Humidity Pressure Visibility Wind Dir Wind Speed Gust Speed Precip Events Conditions
12:15 AM 35.2 °F 29.5 °F 28.0 °F 75% 29.99 in 7.0 mi WNW 6.9 mph - N/A   Overcast
12:35 AM 35.1 °F 28.6 °F 28.2 °F 76% 30.00 in 7.0 mi WNW 8.1 mph - N/A   Overcast
12:55 AM 34.9 °F 29.0 °F 28.4 °F 77% 30.01 in 7.0 mi WNW 6.9 mph - N/A   Overcast
1:15 AM 34.7 °F 31.8 °F 28.4 °F 78% 30.01 in 5.0 mi NNW 3.5 mph - N/A   Haze
1:35 AM 34.7 °F 28.1 °F 28.4 °F 78% 30.02 in 5.0 mi WNW 8.1 mph - N/A   Haze
2:15 AM 34.7 °F 29.6 °F 28.2 °F 77% 30.03 in 5.0 mi WNW 5.8 mph - N/A   Haze
2:35 AM 34.7 °F 28.8 °F 28.0 °F 77% 30.04 in 5.0 mi WNW 6.9 mph - N/A   Haze
2:55 AM 34.7 °F 28.1 °F 28.0 °F 77% 30.05 in 5.0 mi WNW 8.1 mph - N/A   Haze
3:15 AM 34.7 °F 29.6 °F 27.7 °F 76% 30.06 in 5.0 mi West 5.8 mph - N/A   Haze
3:35 AM 34.7 °F 28.8 °F 27.9 °F 76% 30.06 in 5.0 mi West 6.9 mph - N/A   Haze
3:55 AM 34.5 °F 27.3 °F 27.5 °F 76% 30.07 in 5.0 mi WNW 9.2 mph - N/A   Haze
4:15 AM 34.2 °F 26.8 °F 27.1 °F 75% 30.09 in 5.0 mi NW 9.2 mph - N/A   Haze
4:35 AM 34.0 °F 26.6 °F 27.1 °F 76% 30.11 in 5.0 mi WNW 9.2 mph - N/A   Haze
4:55 AM 33.8 °F 27.7 °F 27.0 °F 76% 30.11 in 5.0 mi NW 6.9 mph - N/A   Haze
5:15 AM 33.8 °F 27.0 °F 25.9 °F 73% 30.12 in 10.0 mi WNW 8.1 mph - N/A   Overcast
5:35 AM 33.6 °F 26.8 °F 25.5 °F 72% 30.13 in 7.0 mi NW 8.1 mph - N/A   Overcast
5:55 AM 33.1 °F 26.9 °F 25.7 °F 74% 30.13 in 7.0 mi NW 6.9 mph - N/A   Overcast
6:15 AM 33.1 °F 26.9 °F 25.3 °F 73% 30.15 in 7.0 mi WNW 6.9 mph - N/A   Overcast
6:35 AM 32.9 °F 26.7 °F 25.3 °F 74% 30.16 in 7.0 mi WNW 6.9 mph - N/A   Overcast
6:55 AM 32.9 °F 26.7 °F 25.2 °F 73% 30.17 in 7.0 mi NW 6.9 mph - N/A   Overcast
7:15 AM 32.7 °F 27.3 °F 24.8 °F 73% 30.17 in 10.0 mi WNW 5.8 mph - N/A   Overcast
7:35 AM 32.5 °F 28.1 °F 24.4 °F 72% 30.18 in 10.0 mi WNW 4.6 mph - N/A   Overcast
7:55 AM 32.4 °F 27.9 °F 24.4 °F 73% 30.19 in 10.0 mi WNW 4.6 mph - N/A   Overcast
8:15 AM 32.4 °F 29.1 °F 24.6 °F 73% 30.20 in 10.0 mi West 3.5 mph - N/A   Overcast
8:35 AM 32.4 °F 29.1 °F 24.4 °F 73% 30.21 in 10.0 mi WNW 3.5 mph - N/A   Overcast
8:55 AM 32.5 °F 28.1 °F 23.9 °F 70% 30.21 in 10.0 mi NW 4.6 mph - N/A   Overcast
9:15 AM 32.9 °F 27.5 °F 22.5 °F 65% 30.22 in 10.0 mi NW 5.8 mph - N/A   Overcast
9:35 AM 32.9 °F 26.7 °F 21.7 °F 64% 30.22 in 10.0 mi NW 6.9 mph - N/A   Overcast
10:15 AM 33.6 °F 29.4 °F 21.4 °F 61% 30.23 in 10.0 mi NNW 4.6 mph - N/A   Overcast
10:35 AM 33.8 °F 28.6 °F 21.0 °F 60% 30.23 in 10.0 mi NW 5.8 mph - N/A   Overcast
10:55 AM 34.0 °F 28.0 °F 21.0 °F 59% 30.24 in 10.0 mi NNE 6.9 mph - N/A   Overcast
11:35 AM 34.0 °F 28.8 °F 22.5 °F 63% 30.24 in 10.0 mi North 5.8 mph - N/A   Overcast
11:55 AM 34.2 °F 31.2 °F 21.7 °F 60% 30.25 in 10.0 mi NE 3.5 mph - N/A   Overcast
12:15 PM 34.0 °F - 21.0 °F 59% 30.26 in 10.0 mi Calm Calm - N/A   Overcast
12:35 PM 34.0 °F - 20.7 °F 58% 30.26 in 10.0 mi Calm Calm - N/A   Overcast
12:55 PM 34.3 °F - 20.1 °F 56% 30.26 in 10.0 mi Calm Calm - N/A   Overcast
1:15 PM 34.5 °F - 20.1 °F 56% 30.26 in 10.0 mi Calm Calm - N/A   Overcast
1:35 PM 34.7 °F - 19.9 °F 55% 30.26 in 10.0 mi Calm Calm - N/A   Overcast
1:55 PM 34.7 °F - 19.2 °F 53% 30.25 in 10.0 mi Calm Calm - N/A   Scattered Clouds
2:15 PM 35.4 °F - 19.6 °F 53% 30.25 in 10.0 mi Calm Calm - N/A   Clear
2:35 PM 35.8 °F - 19.4 °F 51% 30.25 in 10.0 mi Calm Calm - N/A   Scattered Clouds
2:55 PM 35.8 °F - 20.1 °F 53% 30.26 in 10.0 mi Calm Calm - N/A   Overcast
3:15 PM 34.9 °F - 20.3 °F 55% 30.26 in 10.0 mi Calm Calm - N/A   Scattered Clouds
3:35 PM 34.5 °F - 19.9 °F 55% 30.26 in 10.0 mi Calm Calm - N/A   Clear
3:55 PM 35.1 °F 31.0 °F 20.1 °F 55% 30.26 in 10.0 mi South 4.6 mph - N/A   Scattered Clouds
4:15 PM 35.1 °F - 20.5 °F 55% 30.26 in 10.0 mi Calm Calm - N/A   Scattered Clouds
4:35 PM 35.6 °F - 20.3 °F 54% 30.26 in 10.0 mi Calm Calm - N/A   Scattered Clouds
4:55 PM 35.2 °F - 19.9 °F 54% 30.26 in 10.0 mi Calm Calm - N/A   Clear
5:15 PM 34.9 °F - 20.5 °F 56% 30.26 in 10.0 mi Calm Calm - N/A   Clear
5:35 PM 34.0 °F - 21.2 °F 60% 30.26 in 10.0 mi Calm Calm - N/A   Clear
5:55 PM 33.1 °F - 21.0 °F 61% 30.27 in 10.0 mi Calm Calm - N/A   Clear
6:15 PM 32.5 °F - 21.2 °F 63% 30.27 in 10.0 mi Calm Calm - N/A   Clear
6:35 PM 32.0 °F - 21.2 °F 64% 30.28 in 10.0 mi Calm Calm - N/A   Clear
6:55 PM 32.0 °F - 21.4 °F 65% 30.29 in 10.0 mi Calm Calm - N/A   Clear
7:15 PM 32.0 °F - 21.2 °F 64% 30.29 in 10.0 mi Calm Calm - N/A   Clear
7:35 PM 29.8 °F - 20.8 °F 69% 30.29 in 10.0 mi Calm Calm - N/A   Clear
7:55 PM 28.8 °F - 20.8 °F 72% 30.28 in 10.0 mi Calm Calm - N/A   Clear
8:15 PM 27.7 °F 22.4 °F 20.3 °F 74% 30.27 in 7.0 mi East 4.6 mph - N/A   Clear
8:35 PM 27.1 °F 21.8 °F 20.1 °F 75% 30.28 in 7.0 mi ENE 4.6 mph - N/A   Clear
8:55 PM 25.2 °F 18.3 °F 18.9 °F 77% 30.26 in 7.0 mi East 5.8 mph - N/A   Clear
9:15 PM 25.5 °F 21.3 °F 19.2 °F 77% 30.27 in 7.0 mi ENE 3.5 mph - N/A   Clear
9:35 PM 25.5 °F 17.8 °F 18.7 °F 75% 30.25 in 7.0 mi East 6.9 mph - N/A   Clear
9:55 PM 25.2 °F 16.5 °F 18.5 °F 76% 30.24 in 7.0 mi East 8.1 mph - N/A   Clear
10:15 PM 26.6 °F - 18.9 °F 73% 30.25 in 10.0 mi Calm Calm - N/A   Clear
10:35 PM 27.1 °F 23.2 °F 18.9 °F 71% 30.24 in 10.0 mi ENE 3.5 mph - N/A   Clear
10:55 PM 26.1 °F 21.9 °F 18.1 °F 72% 30.23 in 10.0 mi ENE 3.5 mph - N/A   Clear
11:15 PM 24.4 °F - 17.8 °F 76% 30.24 in 10.0 mi Calm Calm - N/A   Clear
11:35 PM 24.6 °F - 18.0 °F 76% 30.23 in 7.0 mi Calm Calm - N/A   Clear
11:55 PM 23.9 °F - 18.0 °F 78% 30.25 in 7.0 mi Calm Calm - N/A   Clear